METEOR 2-17 DEB

Satellite information

Favourite Embed

Satellite Type and Status

DEBRISIN ORBIT

Key statistics

Satellite METEOR 2-17 DEB at a glance.

Uptime

13728

Days in orbit

Revolutions

≈ 14.0

Per day

Orbit

LEO

Low Earth Orbit

Inclination

82.5

Latest

Satellite identification and parameters

Extended collection of information and parameters for METEOR 2-17 DEB.

Object identification

Identified? True

Debris? True

Object name: METEOR 2-17 DEB

International designator: 1988-005G

Object number (NORAD): 28992

Object ID (CCSDS): 28992

Country: COMMONWEALTH OF INDEPENDENT STATES (CIS)

Current information (Y/N): Y

RCS size: SMALL

Orbital parameters

Period: 102.931 minutes

Inclination: 82.5405 deg

SMA: 7275.402 km

Apoapsis: 904.514 km

Periapsis: 890.02 km

RAAN: 157.8404 deg

Eccentricy: 0.00099609

Argument of periapsis: 46.7107 deg

Mean anomaly: 330.8585 deg

Mean motion: 13.98998619 rev/day

Mean motion (dot): 0.00000813 rev/day2

B* drag term: 0.0005523947 1/REarth

Two-line elements (TLE)

Creation date: Aug. 30, 2025, 11:24 a.m.

Reference frame: TEME

Reference center: EARTH

Epoch: Aug. 30, 2025, 12:57 a.m. UTC

TLE line 0: 0 METEOR 2-17 DEB

TLE line 1: 1 28992U 88005G 25242.03984249 .00000813 00000-0 55239-3 0 9994

TLE line 2: 2 28992 82.5405 157.8404 0009961 46.7107 330.8585 13.98998619619815

Live tracking on map

Real-time ground track for satellite METEOR 2-17 DEB.

In-orbit conjunctions

A list of the most updated potential collisions computed for object METEOR 2-17 DEB.

Target Orbit TCA Probability of collision Miss distance Type
TEMPSAT 2 LEO 2024-12-20 12:54:20 0.0002377663 494.0 (m) PAYLOAD
FENGYUN 1C DEB SSO 2024-08-30 17:08:41 0.001403495 28.0 (m) DEBRIS

Associated space launch

Second generation soviet meteorological satellite

METEOR 2-17 DEB was lifted into orbit during the mission ‘Tsiklon-3 | Meteor-2 17’, on board a Tsiklon-3 space rocket.

The launch took place on Jan. 30, 1988, 10:59 a.m. from 32/1.

For more information about the launch, click the button.

Launch to space Tsiklon-3 | Meteor-2 17
Tsiklon-3 | Meteor-2 17

Agency: N/A

Status: Launch Successful

Launch date: Jan. 30, 1988, 10:59 a.m. UTC

Rocket: Tsiklon-3

Launch pad: 32/1

Location: Plesetsk Cosmodrome, Russian Federation

...

Latest news about this satellite

There are no fresh news available about this satellite. Check back as we update our databases every day.


Newsletter sign-up

Weekly statistics, charts and insights to help you stay on top of the space industry.